Volver al catálogo

STARLINK-30804

ActivoComunicacionesVLEO
NORAD 58155·PAYLOAD·🇺🇸 United States

Lanzado Oct 29, 2023 desde Vandenberg Space Force Base

Loading…

Próximos Pases (próximas 24 horas)

TLE

ActualizadoSource: CelesTrak SupGP

Época: Sep 15, 2026, 02:17 UTC

1 58155C 23166F   26258.09562500 -.00027755  00000+0 -89287-3 0  2584
2 58155  53.1584  58.6875 0001250  88.0491 300.9730 15.31703760    15

Sigue STARLINK-30804 en tiempo real con AllMySat

Download on the App Store